TEVEL2-5

Last updated on Thu Oct 30 2025 00:03:11 GMT+0000 (Coordinated Universal Time)

1 63214U 25052E 25302.45728992 .00021590 00000+0 87066-3 0 9994 2 63214 97.4115 194.6540 0002481 156.6565 203.4786 15.24832740 34837
UTC large
Height (km)
Speed (km/s)
/
Latitude / Longitude
Inclination (degrees)
Orbital Period (minutes)
Azimuth
Elevation
Range (km)
Doppler Factor

Next 0 passes for location: London (51.5072 / 0.1276)

Sorry there are no passes over London.